Location: *
(28.3744°N, 81.5492°W)
Time: 03:15:42
(UTC+00:00)

Resurs 1-4 Rocket - Pass Details

Date: 15 June 2025
Orbit: 798 x 812 km, 98.8° (Epoch: 11 July)

Event Time Altitude Azimuth Distance (km) Brightness Sun altitude
Rises 08:31:20 0° 356° (N) 3,309 5.9 -21.8°
Reaches altitude 10° 08:34:02 10° 343° (NNW) 2,378 4.9 -21.4°
Maximum altitude 08:38:11 24° 290° (WNW) 1,599 3.4 -20.7°
Enters shadow 08:38:42 24° 281° (W) 1,614 3.3 -20.6°
